STARLINK-4445, 53474

Orbit data source: Space-Track

STARLINK-4445, 53474 is a payload satellite owned by SpaceX/Seattle (US) in SSO that was launched on Fri, 12 Aug 2022 UTC via an FALCON 9 launch vehicle from the Air Force Western Test Range (AFWTR). Payload-class satellites include a variety of spacecraft equipped with specific instruments for various scientific and technological missions. These include communications satellites like Starlink; space stations such as the ISS; scientific satellites like the Hubble; Earth observation satellites from companies like Planet Labs, Umbra, and HawkEye 360; GPS; miniature CubeSats for education and research; and military/defense satellites.

Loading next visibility...
Identifier
53474, 2022-099K
Orbit
SSO
Country
Flag of USUS
Related business
Manufacturer
SpaceX/Seattle
Mission
Operational Commercial Communications
Bus & Motor
STARLINK, Unknown motor
Mass
300 kg wet, ~275 kg dry
Launch date (UTC)
2022-08-12 (4 years ago)
Launch vehicle
FALCON 9
Launch site
Air Force Western Test Range (AFWTR)
Object type
Payload
Rocket body
Debris
Shape & HBR
Box + 1 Pan, 10.1 m
Radar Cross Section
13.562 m², Large (>1 m²)

Expand to show TLE details & history
Last TLE update: 7 hours ago

TLE from 7 hours ago
0 STARLINK-4445
1 53474U 22099K   26145.56594358 -.00005554  00000-0 -38087-3 0  9998
2 53474  97.4479 265.5235 0001535 178.5126 181.6106 15.05677621207548
Epoch: 2026-05-25T13:34Z
TLE epoch observation values (Epoch: 2026-05-25T13:34:57.525Z)
Latitude
-0.00002°
Longitude
178.63191°
Altitude
553.559 km
Speed
7.584 km/s
True Right ascension
17h 42m 05s
True Declination
0° 00' 00"
Sunlit
Object was in full shadow at epoch
Visualization orbit readout
Latitude
Unknown
Longitude
Unknown
Altitude
Unknown
Speed
Unknown
Apparent Right ascension
Unknown
Apparent Declination
Unknown
Sunlit
N/A
Visualization observer readout
Local Sidereal Time
06:10:08
Azimuth
Unknown
Elevation
Unknown
Doppler factor
Unknown
Orbital elements
Apogee altitude
547.476 km
Perigee altitude
545.35 km
Semi-major axis
6,924.55 km
Eccentricity
0.00015
Inclination
97.4479°
RAAN
265.5235°
Arg. of periapsis
178.5126°
True anomaly
181.61011°
Mean anomaly
181.6106°
Eccentric anomaly
181.61035°
Mean motion
3.76665 °/min
Orbital period
95.58 mins
BSTAR
-0.00038087
Loading maneuver chart data...
Computing Atmospheric mass density...
Loading historical data...
Loading historical data...
Loading historical data...
Loading historical data...
Loading historical data...
Loading historical data...
Loading historical data...

Documentation

Showing up to 5 results
|